Temp
65 65 65 65 64 65 62 62 56 62 62 66 66 65 66 67 66 66 66 67 68 67 69 70 69 71 72 73 73 71 67 72 72 74 71 72 72 72 72 71 69 72 72 74
59 65 65 61 64 64 64 64 64 63 61 68 67 68 67 65 65 64 65 66 67 68 69 69 66 66 69 69 68 68 67 71 71 71 69 69 71 71 70 71 71 71 71 73
53 60 60 54 61 63 64 66 65 58 65 66 66 65 64 63 64 62 61 62 65 67 64 66 64 64 65 65 67 67 66 69 70 69 68 69 70 70 70 71 70 69 70 70
55 54 46 62 65 65 64 65 65 65 66 66 65 65 65 65 61 61 60 62 65 62 62 62 63 64 64 65 65 65 65 65 66 66 67 67 66 67 66 67 67 67 69 70
52 53 57 62 62 62 60 61 65 64 66 66 66 66 63 65 65 62 59 59 60 61 61 61 61 64 62 62 63 64 63 65 67 67 67 68 69 70 68 66 66 66 67 70
50 47 47 59 63 67 64 56 66 65 65 65 64 60 64 64 64 62 60 60 60 64 63 60 61 62 62 60 61 64 66 67 68 70 68 68 68 70 70 69 69 71 71 70
52 50 57 64 65 66 53 57 66 66 66 65 61 64 63 63 63 62 61 60 64 68 62 61 61 64 63 62 61 64 67 70 70 71 70 70 71 72 71 69 69 69 69 68
50 49 48 65 64 58 63 66 65 66 66 64 65 66 65 64 61 61 60 61 62 65 63 63 65 65 64 64 66 68 68 68 68 69 71 71 71 71 71 72 71 70 65 64
55 59 62 66 65 69 67 65 66 65 67 65 65 65 65 64 60 60 60 60 62 61 66 63 64 65 64 63 66 67 68 67 67 69 69 70 70 70 73 72 72 67 64 64
56 62 63 66 68 68 68 67 69 68 67 67 64 66 64 60 63 59 59 61 66 63 65 65 65 65 63 65 66 67 66 66 67 68 68 68 72 73 73 73 72 72 71 69
57 61 66 68 67 69 68 68 68 68 67 68 67 66 64 64 63 59 59 64 66 66 65 66 66 65 65 66 66 67 67 67 68 71 70 71 70 71 74 71 69 73 72 73
57 65 63 64 69 70 67 68 68 67 67 68 68 64 65 65 63 62 59 61 65 67 65 66 67 66 65 65 65 65 67 68 67 70 72 72 72 71 51 51 47 46 46 59
63 69 67 67 67 69 66 68 69 69 69 68 68 68 64 64 66 61 60 63 67 67 68 66 66 65 66 64 64 64 65 66 69 68 71 71 71 71 72 61 46 45 45 45
67 65 62 67 66 69 67 68 66 70 69 68 70 69 69 67 66 65 66 65 64 67 67 67 67 67 66 65 66 65 66 54 70 70 71 72 72 72 73 72 72 73 50 49
65 66 65 67 66 66 68 67 66 67 68 68 69 67 70 67 67 67 69 66 66 66 67 67 67 67 66 66 66 66 68 69 69 71 72 67 72 72 73 73 73 73 74 56
63 65 65 63 64 64 65 65 66 67 67 67 68 68 71 70 67 65 67 68 66 68 69 67 67 68 68 67 67 69 69 58 61 70 71 71 73 73 73 73 72 73 73 74
60 61 61 62 63 63 63 65 66 67 67 68 67 68 71 69 68 67 68 69 68 69 70 69 69 69 69 68 67 70 71 71 58 73 72 71 71 71 72 72 73 73 72 71
62 62 62 62 62 64 63 64 66 67 66 68 65 66 69 67 65 63 67 66 65 68 70 72 71 69 69 69 69 71 71 73 73 73 72 72 72 73 72 73 72 73 74 72
63 63 64 64 64 64 65 66 66 67 67 67 65 62 65 66 63 68 68 67 67 67 69 69 63 65 70 68 67 74 75 74 74 73 72 65 72 73 73 72 72 73 74 75
61 62 64 63 64 64 65 67 66 66 66 63 60 59 63 66 67 67 67 65 64 66 66 68 68 69 69 67 62 73 73 72 72 71 71 70 71 70 71 63 68 71 72 74
59 60 60 61 63 64 64 66 66 64 60 59 61 65 67 67 68 67 64 60 63 63 66 64 67 63 64 61 68 73 71 69 69 69 69 68 69 69 69 70 70 70 70 71
58 60 60 61 62 60 61 62 66 61 62 64 65 67 67 65 66 63 62 64 66 54 66 68 68 58 65 62 71 70 70 68 69 68 67 67 67 67 67 68 68 67 67 68
61 60 59 59 61 60 61 60 60 60 61 61 61 63 62 62 67 67 64 64 67 58 67 65 54 53 55 68 69 68 67 67 67 67 66 66 66 66 66 67 66 67 66 65
61 61 61 62 61 57 53 59 57 57 55 55 57 62 64 66 65 67 65 57 53 58 59 56 55 52 56 66 66 66 66 65 65 65 66 52 66 66 66 64 64 64 63 62
60 60 62 61 57 55 57 62 60 58 56 56 56 60 63 64 63 63 64 60 52 58 60 51 51 53 62 62 62 62 62 61 61 62 63 62 61 61 61 62 62 59 59 59
58 58 57 58 56 56 57 57 54 54 54 51 55 60 62 62 61 60 58 55 58 54 57 58 58 59 59 60 60 59 59 59 58 59 58 58 58 57 56 54 53 55 57 55
62 56 63 62 65 61 58 56 54 55 53 52 54 59 61 62 59 58 55 59 59 58 57 58 59 57 59 58 58 58 58 58 52 56 58 57 57 56 56 55 56 55 53 54
MSLP
1009.36 1009.31 1009.20 1008.93 1008.73 1008.65 1008.70 1008.30 1008.07 1006.98 1006.80 1007.02 1007.64 1008.16 1008.36 1008.72 1008.81 1008.70 1008.52 1008.16 1007.86 1007.40 1006.74 1006.32 1006.13 1005.80 1005.20 1005.01 1004.98 1004.93 1004.77 1004.51 1005.13 1005.42 1005.78 1006.12 1006.17 1006.43 1006.43 1006.18 1006.64 1006.96 1007.25 1006.97
1009.65 1009.28 1009.09 1008.66 1008.37 1008.07 1007.93 1007.67 1007.42 1007.23 1007.01 1007.41 1007.95 1008.26 1008.51 1008.82 1008.98 1008.82 1008.66 1008.26 1007.78 1007.30 1006.59 1006.21 1006.25 1006.16 1005.59 1005.25 1005.04 1004.70 1004.15 1004.52 1005.60 1005.49 1005.88 1005.75 1005.19 1005.90 1006.19 1006.34 1006.58 1006.91 1006.81 1006.79
1009.51 1009.43 1009.10 1008.62 1007.61 1007.59 1007.52 1007.36 1007.29 1007.16 1007.02 1007.60 1007.80 1008.30 1008.86 1009.21 1009.47 1009.45 1009.05 1008.35 1007.68 1007.16 1007.01 1006.65 1006.54 1006.36 1006.10 1005.64 1005.16 1004.71 1004.38 1004.50 1004.92 1005.21 1004.90 1004.87 1005.07 1005.27 1005.38 1005.64 1006.14 1006.33 1006.57 1006.56
1010.07 1009.95 1008.77 1007.68 1007.92 1007.95 1007.81 1007.64 1007.79 1007.66 1007.66 1007.98 1008.36 1008.79 1009.23 1009.66 1009.97 1009.99 1009.15 1008.29 1007.68 1007.37 1007.14 1007.11 1006.88 1006.65 1006.53 1006.07 1005.95 1005.14 1004.48 1004.90 1004.85 1004.78 1004.99 1004.96 1004.79 1004.55 1004.86 1004.52 1004.50 1004.98 1005.58 1005.43
1010.56 1009.60 1008.55 1007.79 1008.04 1008.07 1007.89 1007.66 1007.85 1007.89 1007.93 1008.24 1008.57 1008.70 1009.22 1009.75 1010.04 1010.25 1009.90 1009.35 1008.42 1007.57 1007.68 1007.71 1007.39 1007.29 1007.11 1006.79 1006.31 1005.93 1005.54 1005.55 1005.49 1005.41 1005.31 1005.22 1005.36 1005.35 1005.34 1005.33 1005.30 1005.27 1005.34 1005.23
1011.08 1009.83 1008.33 1007.86 1008.22 1008.30 1008.41 1007.79 1008.01 1008.12 1008.13 1008.35 1008.66 1008.33 1008.73 1009.62 1009.91 1010.18 1010.06 1009.45 1009.15 1008.76 1008.62 1008.29 1007.86 1007.49 1007.42 1007.17 1006.68 1006.50 1006.01 1005.76 1005.67 1005.66 1005.61 1005.30 1005.62 1005.88 1005.64 1005.46 1005.08 1005.07 1004.97 1005.00
1010.56 1009.72 1008.57 1008.10 1008.39 1008.58 1008.37 1008.39 1008.23 1008.30 1008.27 1008.37 1008.54 1008.76 1009.32 1009.77 1009.81 1010.15 1009.98 1009.72 1009.25 1008.94 1009.07 1008.75 1008.39 1007.93 1007.57 1007.50 1007.51 1007.08 1006.40 1005.99 1005.96 1005.84 1005.86 1005.58 1005.80 1005.48 1005.24 1005.11 1004.97 1004.85 1005.34 1005.68
1010.43 1009.61 1008.74 1008.60 1008.76 1008.56 1008.45 1008.26 1008.50 1008.44 1008.35 1008.33 1008.43 1008.60 1009.13 1009.58 1009.98 1010.14 1010.23 1009.91 1009.50 1008.97 1008.95 1008.67 1008.39 1008.11 1008.04 1008.09 1007.87 1007.48 1007.07 1006.53 1006.22 1005.66 1005.67 1005.96 1005.81 1005.47 1005.19 1005.18 1005.20 1005.38 1005.90 1006.21
1010.09 1008.80 1008.68 1008.65 1008.46 1008.20 1008.31 1008.23 1008.35 1008.36 1008.23 1008.24 1008.27 1008.46 1008.83 1009.24 1009.78 1010.22 1010.13 1009.99 1009.63 1009.10 1008.56 1008.36 1008.31 1008.15 1008.23 1008.23 1007.79 1007.47 1007.23 1006.89 1006.54 1006.37 1006.24 1006.08 1005.90 1005.88 1005.86 1006.18 1005.90 1006.31 1006.29 1006.60
1009.81 1008.65 1008.37 1008.21 1008.12 1008.05 1008.09 1008.00 1007.98 1008.20 1008.12 1008.05 1008.02 1008.29 1008.61 1009.05 1009.56 1010.08 1009.92 1009.84 1009.47 1009.09 1008.78 1008.48 1008.11 1008.08 1007.98 1007.75 1007.77 1007.60 1007.21 1007.05 1006.75 1006.55 1006.50 1006.42 1006.30 1006.15 1006.03 1006.09 1006.18 1006.26 1006.60 1006.94
1009.26 1008.46 1008.06 1007.54 1007.91 1007.80 1007.72 1007.84 1007.91 1007.94 1007.99 1007.83 1007.93 1008.04 1008.33 1008.67 1009.08 1009.70 1009.83 1009.51 1009.27 1009.06 1008.95 1008.70 1008.62 1008.48 1008.21 1007.80 1007.65 1007.19 1007.10 1007.09 1006.87 1006.77 1006.73 1006.51 1006.67 1006.71 1006.30 1006.46 1006.65 1006.69 1006.68 1006.91
1008.13 1007.92 1008.19 1007.71 1007.54 1007.71 1007.55 1007.49 1007.58 1007.67 1007.71 1007.68 1007.76 1007.89 1007.99 1008.26 1008.76 1009.28 1009.57 1009.37 1008.99 1008.88 1008.90 1008.87 1008.84 1008.75 1008.67 1008.49 1008.09 1007.67 1007.34 1006.97 1006.98 1006.73 1006.41 1006.42 1006.18 1006.43 1007.01 1007.17 1007.43 1007.54 1007.68 1007.55
1008.10 1008.11 1008.23 1007.90 1007.56 1007.41 1007.35 1007.28 1007.38 1007.42 1007.60 1007.66 1007.74 1007.85 1008.25 1008.17 1008.46 1008.82 1009.11 1009.02 1008.73 1008.78 1008.82 1008.97 1009.03 1009.00 1008.97 1008.81 1008.63 1008.46 1008.24 1007.91 1007.39 1007.11 1006.68 1006.48 1006.15 1006.30 1006.78 1007.67 1007.92 1008.33 1008.29 1008.38
1008.15 1008.33 1008.01 1007.45 1007.37 1007.26 1007.22 1007.26 1007.37 1007.37 1007.64 1007.84 1007.79 1007.82 1007.83 1008.10 1008.32 1008.43 1008.49 1008.53 1008.77 1008.81 1008.74 1008.80 1008.88 1008.89 1009.10 1009.16 1008.95 1008.73 1008.50 1008.29 1007.89 1007.61 1007.24 1006.89 1006.80 1006.69 1006.44 1006.65 1007.20 1007.44 1008.18 1008.44
1007.70 1007.88 1007.64 1007.32 1007.43 1007.14 1007.19 1007.30 1007.46 1007.52 1007.67 1007.75 1007.80 1007.73 1007.85 1007.97 1008.11 1008.41 1008.42 1008.55 1008.59 1008.69 1008.67 1008.68 1008.66 1008.74 1009.00 1009.03 1008.86 1008.69 1008.45 1008.20 1007.99 1007.65 1007.42 1007.32 1007.06 1006.84 1006.87 1006.86 1006.83 1006.83 1007.18 1008.19
1007.93 1007.61 1007.43 1007.22 1007.03 1007.05 1007.27 1007.43 1007.51 1007.59 1007.75 1007.89 1007.81 1007.84 1007.74 1007.84 1008.11 1008.31 1008.48 1008.60 1008.62 1008.44 1008.43 1008.52 1008.54 1008.64 1008.76 1008.76 1008.63 1008.38 1008.26 1008.27 1008.10 1007.80 1007.45 1007.12 1006.86 1006.62 1006.41 1006.35 1006.62 1006.66 1006.76 1007.10
1007.68 1007.18 1007.34 1007.14 1007.13 1007.15 1007.31 1007.46 1007.57 1007.59 1007.82 1007.88 1007.91 1007.86 1007.66 1007.86 1008.12 1008.28 1008.33 1008.50 1008.57 1008.45 1008.40 1008.41 1008.38 1008.61 1008.73 1008.71 1008.60 1008.41 1008.26 1008.13 1008.09 1007.62 1007.43 1007.34 1007.06 1006.82 1006.61 1006.48 1006.24 1006.20 1006.60 1006.89
1008.15 1007.96 1007.66 1007.40 1007.27 1007.17 1007.42 1007.49 1007.50 1007.64 1007.75 1007.87 1008.05 1007.88 1007.53 1007.85 1008.08 1008.22 1008.20 1008.46 1008.60 1008.42 1008.35 1008.23 1008.31 1008.49 1008.58 1008.60 1008.56 1008.28 1008.10 1007.93 1007.81 1007.65 1007.54 1007.24 1007.08 1006.86 1006.61 1006.35 1006.28 1006.21 1006.12 1006.49
1008.10 1007.84 1007.54 1007.30 1007.22 1007.17 1007.25 1007.28 1007.46 1007.56 1007.84 1008.07 1008.15 1007.86 1007.85 1007.78 1008.02 1008.10 1008.33 1008.48 1008.60 1008.48 1008.37 1008.42 1008.61 1008.83 1008.67 1008.79 1008.75 1008.18 1007.89 1007.69 1007.44 1007.32 1007.31 1007.25 1006.83 1006.67 1006.42 1006.30 1006.17 1006.07 1005.94 1005.88
1008.17 1007.89 1007.53 1007.45 1007.44 1007.41 1007.34 1007.50 1007.68 1007.84 1008.06 1008.31 1008.26 1008.23 1008.19 1007.92 1008.06 1008.25 1008.47 1008.74 1009.06 1009.08 1008.81 1008.46 1008.47 1008.62 1008.78 1008.83 1008.84 1008.10 1007.84 1007.81 1007.71 1007.63 1007.52 1007.48 1007.07 1006.82 1006.58 1006.45 1006.35 1005.89 1005.57 1005.23
1007.94 1007.83 1007.64 1007.63 1007.50 1007.61 1007.64 1007.69 1007.86 1008.08 1008.46 1008.47 1008.50 1008.08 1007.93 1008.17 1008.23 1008.53 1008.86 1009.06 1009.37 1009.36 1009.10 1009.05 1009.05 1009.16 1009.12 1009.03 1008.51 1007.99 1007.94 1007.91 1007.77 1007.64 1007.56 1007.38 1007.16 1006.93 1006.63 1006.37 1006.05 1005.71 1005.43 1005.07
1008.50 1008.30 1007.96 1007.73 1007.81 1008.12 1008.23 1008.02 1008.07 1008.28 1008.60 1009.05 1008.55 1008.34 1008.43 1008.57 1008.76 1009.30 1009.67 1009.72 1009.77 1009.92 1009.52 1009.54 1009.61 1009.90 1009.41 1008.96 1008.51 1008.30 1008.20 1008.13 1007.92 1007.83 1007.66 1007.51 1007.25 1007.03 1006.71 1006.38 1006.03 1005.79 1005.58 1005.22
1008.67 1008.54 1008.46 1008.29 1008.23 1008.41 1008.52 1008.68 1008.65 1008.79 1009.22 1009.35 1009.12 1009.07 1009.07 1009.33 1009.25 1009.27 1009.78 1010.65 1010.40 1010.76 1010.40 1010.65 1010.92 1010.46 1009.90 1009.20 1008.90 1008.70 1008.62 1008.55 1008.38 1008.16 1008.02 1007.95 1007.58 1007.11 1006.68 1006.34 1006.22 1005.88 1005.72 1005.57
1008.84 1008.73 1008.71 1008.84 1008.94 1008.74 1009.16 1009.64 1009.35 1009.41 1009.81 1010.09 1010.40 1009.95 1009.62 1009.57 1010.04 1010.40 1010.92 1011.46 1011.53 1011.27 1011.63 1011.74 1011.23 1010.68 1010.10 1009.79 1009.63 1009.42 1009.23 1009.05 1008.86 1008.59 1008.21 1008.26 1007.59 1007.11 1006.70 1006.50 1006.21 1006.00 1005.91 1005.71
1009.35 1009.32 1009.23 1009.31 1009.46 1009.86 1009.92 1009.91 1009.98 1010.36 1010.59 1010.77 1010.93 1010.83 1010.57 1010.56 1010.59 1011.19 1011.31 1011.91 1012.11 1011.69 1011.78 1012.14 1011.86 1011.41 1010.99 1010.75 1010.51 1010.27 1010.01 1009.85 1009.71 1009.06 1008.57 1008.25 1008.05 1007.55 1007.10 1006.67 1006.29 1006.25 1006.02 1005.82
1009.81 1009.86 1009.93 1009.88 1010.17 1010.38 1010.61 1010.60 1010.56 1010.95 1011.48 1011.44 1011.65 1011.62 1011.56 1011.71 1011.87 1011.92 1012.26 1012.48 1012.55 1012.58 1012.51 1012.34 1012.13 1011.73 1011.55 1011.31 1011.10 1010.89 1010.52 1010.18 1009.94 1009.54 1009.24 1008.96 1008.59 1008.17 1007.87 1007.73 1007.43 1007.01 1006.50 1006.37
1009.95 1009.85 1009.71 1009.81 1009.93 1010.45 1010.75 1010.92 1011.03 1011.45 1011.89 1012.24 1012.46 1012.36 1012.14 1012.10 1012.39 1012.42 1012.65 1012.68 1012.77 1012.86 1012.88 1012.73 1012.54 1012.31 1012.01 1011.78 1011.37 1011.05 1010.76 1010.48 1010.32 1010.16 1009.59 1009.20 1008.92 1008.66 1008.30 1007.99 1007.49 1007.05 1006.75 1006.22
Wind_Speed
13 10 8 12 15 16 14 17 11 17 20 15 11 7 11 10 11 12 12 14 13 13 13 9 9 10 11 7 8 7 9 14 12 8 6 5 6 8 10 8 5 10 9 8
11 13 15 18 18 19 18 17 18 18 16 5 3 7 7 10 12 15 16 18 16 14 13 7 7 8 8 7 7 5 9 12 10 7 6 4 2 5 9 9 9 10 10 10
7 5 7 10 17 13 9 8 7 10 13 3 11 8 8 10 13 17 19 16 14 11 9 5 5 5 6 6 5 6 5 2 5 6 9 4 6 7 5 4 4 6 7 8
3 3 6 4 1 3 7 7 7 11 13 9 8 6 4 8 10 14 18 14 10 8 3 5 5 5 5 6 6 8 9 6 3 3 5 4 4 6 6 5 5 4 6 4
4 4 5 7 3 4 2 7 5 3 8 7 5 6 4 5 7 8 10 12 12 10 7 6 6 5 8 6 6 5 6 3 3 1 4 3 5 6 5 4 5 5 6 8
3 4 6 2 3 4 3 2 2 3 8 8 6 8 3 3 3 6 7 7 6 8 7 5 7 5 9 6 6 6 5 6 6 5 3 2 6 6 4 4 4 4 6 5
5 5 5 1 2 2 5 4 2 4 6 7 6 5 2 1 4 3 4 7 6 5 5 4 5 5 9 7 7 5 4 6 6 6 6 5 2 2 2 0 2 5 5 5
3 5 4 3 4 3 3 2 4 5 5 7 7 6 4 5 5 2 5 5 7 6 4 5 6 6 7 7 5 5 5 6 7 8 6 5 5 5 5 4 5 6 6 6
6 2 2 2 9 9 6 10 6 6 6 6 7 5 3 4 7 5 3 6 4 9 3 5 6 7 6 6 6 5 5 6 5 6 5 5 6 6 6 5 6 6 5 5
3 3 3 10 10 9 8 9 8 5 5 3 6 3 4 3 10 6 8 9 6 7 5 4 6 7 6 9 8 6 7 6 5 5 4 4 3 3 5 5 5 5 5 4
6 13 11 8 5 7 6 7 6 4 2 4 5 5 2 4 8 7 8 10 8 3 5 3 4 5 6 9 10 8 8 6 5 3 3 3 4 2 3 4 4 5 5 4
12 12 11 11 10 11 12 7 5 3 3 4 4 4 4 6 7 7 4 9 4 3 4 3 3 3 5 7 8 8 7 6 5 5 4 4 4 4 8 8 9 9 9 3
17 14 10 13 16 16 14 7 6 5 3 2 1 3 2 3 7 9 8 8 5 3 1 2 2 2 3 5 4 5 6 6 4 5 6 6 6 5 3 5 8 6 6 7
12 10 13 17 10 9 5 6 8 4 2 4 3 3 4 2 2 7 8 5 3 4 3 0 2 1 2 3 3 4 4 3 3 4 5 5 5 5 5 4 3 1 5 2
7 7 16 16 11 9 7 7 7 4 3 5 4 3 5 5 3 3 4 3 4 3 2 3 3 3 1 2 3 4 4 4 4 4 4 4 4 4 4 4 4 4 1 5
11 9 6 5 5 4 7 7 6 5 4 2 4 5 5 4 4 2 2 2 2 2 2 3 2 1 1 1 2 3 3 3 3 3 4 4 5 5 5 4 3 4 4 3
8 4 7 6 4 4 7 5 6 5 5 5 4 4 5 5 5 4 3 4 2 1 2 2 1 1 1 1 1 2 2 2 2 3 4 5 5 5 5 5 6 5 5 2
3 4 6 7 7 5 5 7 5 6 7 5 4 5 5 5 3 2 3 3 1 3 4 4 4 3 3 2 3 3 3 3 3 4 4 5 6 6 6 6 5 7 6 4
3 6 8 6 4 3 4 4 4 4 6 3 1 4 1 4 4 3 3 4 2 3 4 5 2 4 1 1 4 3 3 3 4 5 5 6 7 8 7 7 7 8 8 8
5 6 6 2 1 2 3 2 2 5 4 0 3 5 8 7 5 5 5 7 5 5 8 6 2 3 3 4 5 3 4 5 5 6 5 7 7 8 8 8 8 9 9 9
7 8 1 3 1 5 4 3 5 5 5 3 5 7 7 6 6 5 5 3 7 7 6 8 8 4 3 3 4 4 4 5 5 6 6 6 7 7 8 8 8 8 8 8
5 5 5 4 5 7 7 4 4 4 4 4 4 6 7 7 8 10 9 6 5 9 7 7 7 10 6 6 5 5 5 5 5 5 5 6 7 7 8 8 8 8 8 8
5 4 4 2 5 8 9 6 7 7 9 8 6 7 9 7 5 5 7 7 6 6 7 8 10 9 7 5 5 6 7 7 7 6 6 7 7 7 8 8 8 7 7 7
7 8 8 8 8 9 10 5 7 10 10 10 10 6 6 7 8 7 8 8 6 8 11 10 10 12 10 7 7 7 7 8 8 8 7 7 8 8 8 9 9 7 7 7
9 10 11 13 12 7 8 10 11 10 10 10 7 7 10 9 7 7 7 8 12 10 10 12 12 10 9 8 8 8 7 6 7 8 9 9 10 10 10 10 9 9 8 8
4 4 4 7 5 5 6 5 7 5 5 7 6 7 7 7 7 8 9 8 9 9 8 8 10 9 9 9 8 8 8 8 9 9 9 8 9 9 9 9 8 10 10 8
5 3 3 5 5 4 3 4 5 6 6 6 5 6 7 8 8 8 8 7 7 8 7 7 7 8 8 8 8 8 8 8 7 8 9 9 8 8 9 10 10 9 9 9
Wind_Direction
267 251 229 259 263 270 254 253 253 283 292 292 310 305 317 325 324 319 318 316 315 309 302 291 300 311 300 294 292 291 231 227 227 214 196 196 177 212 228 222 238 231 223 221
265 264 258 262 258 262 262 260 255 275 283 316 278 315 338 352 338 330 325 318 314 304 299 299 311 309 309 328 330 317 197 209 222 258 263 250 299 237 219 202 200 221 211 204
278 299 254 249 252 251 244 249 267 276 308 319 307 330 357 347 344 340 326 306 303 311 305 342 337 345 8 12 2 57 77 155 236 266 297 3 283 262 254 236 206 196 213 203
280 225 235 53 195 265 266 297 257 283 305 316 310 330 352 16 0 360 349 332 322 315 358 6 353 28 4 21 11 47 57 27 15 307 285 287 296 308 293 315 300 266 249 254
262 237 320 260 185 202 234 306 331 307 335 329 320 297 145 45 8 15 17 13 4 347 28 6 358 41 57 30 10 51 66 72 67 353 284 296 279 273 265 230 215 235 258 240
180 252 271 89 161 197 184 238 62 315 327 328 317 312 25 88 44 33 18 14 336 347 16 13 353 3 72 60 31 12 53 53 60 58 28 144 207 228 242 253 251 238 233 224
231 254 268 267 177 178 259 42 346 325 331 321 295 308 101 178 105 4 344 332 327 16 13 13 347 11 52 47 44 1 27 61 55 69 78 64 132 216 181 180 51 64 67 41
185 227 240 145 144 257 5 322 286 321 340 325 312 298 256 214 137 63 350 340 326 331 5 6 26 32 51 33 18 50 50 52 47 43 41 53 77 66 50 36 53 64 58 52
223 271 82 245 269 279 265 282 291 298 332 315 306 312 277 205 164 156 257 282 287 292 13 15 14 22 23 14 14 19 47 51 57 70 54 34 53 70 94 88 85 95 78 64
237 194 273 291 297 282 273 250 259 272 299 326 310 313 332 256 180 172 230 247 266 319 352 14 347 358 359 6 3 15 28 37 51 67 57 48 65 82 87 84 84 89 100 111
253 280 302 266 257 327 326 262 244 242 276 310 301 286 274 169 178 186 235 248 248 240 297 354 354 345 354 358 351 8 10 11 33 56 61 87 74 41 94 83 49 91 90 94
259 271 262 285 307 305 311 289 224 211 253 283 259 226 181 163 146 169 203 286 246 233 280 324 330 354 9 358 356 358 350 3 10 358 15 25 35 81 49 51 41 29 21 23
264 273 264 285 298 299 269 232 198 196 241 285 209 178 145 148 160 161 207 240 223 234 277 306 338 79 31 7 12 3 355 359 16 14 23 20 27 26 43 116 104 94 69 50
259 267 277 274 273 335 254 220 190 193 225 229 217 178 191 99 155 169 194 193 175 220 232 115 356 344 36 8 360 13 9 58 28 20 21 23 29 33 33 24 344 302 132 140
294 272 256 280 289 277 206 177 188 184 202 195 205 190 185 165 167 178 233 207 195 210 254 321 315 352 6 20 25 24 25 24 8 9 26 17 33 39 33 35 18 17 100 168
317 288 278 267 283 241 200 194 209 199 173 192 201 198 185 147 124 102 65 266 225 286 348 307 307 344 355 355 359 19 34 38 346 0 10 8 8 355 347 351 334 350 343 342
332 346 349 1 330 238 211 211 226 225 197 191 232 227 185 165 150 155 175 206 248 273 299 273 231 189 233 259 283 319 331 4 12 360 11 359 341 334 332 327 309 315 312 338
311 315 317 302 283 281 202 222 218 210 199 212 274 234 146 149 160 156 186 147 197 282 282 266 222 206 233 283 299 297 291 309 333 332 332 331 334 313 301 300 304 289 282 260
316 330 341 315 257 245 239 215 209 199 182 232 267 85 97 127 153 115 103 93 29 340 16 332 27 229 259 31 290 260 284 302 312 316 324 327 321 329 312 298 291 291 286 272
343 355 331 325 153 185 157 152 130 149 150 268 167 113 194 128 130 107 90 83 35 350 333 347 70 106 32 5 314 302 317 315 313 313 316 315 313 323 315 300 282 292 290 282
17 2 336 256 206 73 88 57 155 149 88 342 236 165 106 94 78 66 81 70 14 27 55 57 50 24 25 350 304 354 350 336 327 331 328 329 324 321 321 320 318 321 317 309
19 2 351 57 81 84 60 52 136 113 116 225 116 93 101 84 91 84 60 47 43 4 46 42 34 21 24 332 21 11 -0 357 350 342 340 334 329 323 325 327 334 340 338 338
28 31 50 80 119 86 58 52 78 90 82 44 45 88 86 75 58 86 80 41 55 37 55 49 13 1 324 25 21 13 9 4 357 349 341 334 320 323 322 321 323 320 320 331
64 69 81 93 93 79 63 57 76 75 79 74 43 54 85 99 81 75 89 71 58 63 56 28 25 19 13 28 21 13 8 4 355 342 333 322 332 330 330 330 322 334 334 332
71 74 79 80 73 60 66 79 89 80 58 63 59 52 61 49 70 60 63 69 44 52 54 38 29 30 37 30 24 17 8 11 2 343 345 347 341 333 331 326 334 335 328 331
60 74 83 103 112 96 85 76 71 68 87 59 43 59 66 72 77 80 75 65 63 61 52 44 36 30 26 21 10 6 359 357 355 356 346 346 340 337 340 344 339 333 333 336
95 88 101 94 88 87 87 107 114 96 85 88 83 51 63 66 66 68 64 61 58 54 46 38 31 24 13 3 3 356 351 345 355 344 333 333 331 330 329 328 326 323 315 317